Year,Month,Day,Hour,Minute,Value (Times are PST for temperature in C)
2016,08,13,00,00,20.20
2016,08,13,00,01,20.20
2016,08,13,00,02,20.20
2016,08,13,00,03,20.20
2016,08,13,00,04,20.20
2016,08,13,00,05,20.20
2016,08,13,00,06,20.20
2016,08,13,00,07,20.20
2016,08,13,00,08,20.20
2016,08,13,00,09,20.30
2016,08,13,00,10,20.30
2016,08,13,00,11,20.30
2016,08,13,00,12,20.30
2016,08,13,00,13,20.30
2016,08,13,00,14,20.20
2016,08,13,00,15,20.20
2016,08,13,00,16,20.20
2016,08,13,00,17,20.20
2016,08,13,00,18,20.20
2016,08,13,00,19,20.10
2016,08,13,00,20,20.10
2016,08,13,00,21,20.10
2016,08,13,00,22,20.10
2016,08,13,00,23,20.00
2016,08,13,00,24,20.00
2016,08,13,00,25,19.90
2016,08,13,00,26,19.90
2016,08,13,00,27,19.90
2016,08,13,00,28,19.90
2016,08,13,00,29,19.80
2016,08,13,00,30,19.80
2016,08,13,00,31,19.80
2016,08,13,00,32,19.80
2016,08,13,00,33,19.80
2016,08,13,00,34,19.80
2016,08,13,00,35,19.80
2016,08,13,00,36,19.80
2016,08,13,00,37,19.80
2016,08,13,00,38,19.80
2016,08,13,00,39,19.80
2016,08,13,00,40,19.80
2016,08,13,00,41,19.80
2016,08,13,00,42,19.80
2016,08,13,00,43,19.80
2016,08,13,00,44,19.80
2016,08,13,00,45,19.80
2016,08,13,00,46,19.80
2016,08,13,00,47,19.80
2016,08,13,00,48,19.80
2016,08,13,00,49,19.80
2016,08,13,00,50,19.80
2016,08,13,00,51,19.80
2016,08,13,00,52,19.80
2016,08,13,00,53,19.80
2016,08,13,00,54,19.80
2016,08,13,00,55,19.70
2016,08,13,00,56,19.70
2016,08,13,00,57,19.70
2016,08,13,00,58,19.70
2016,08,13,00,59,19.70
2016,08,13,01,00,19.70
2016,08,13,01,01,19.80
2016,08,13,01,02,19.80
2016,08,13,01,03,19.80
2016,08,13,01,04,19.80
2016,08,13,01,05,19.80
2016,08,13,01,06,19.80
2016,08,13,01,07,19.80
2016,08,13,01,08,19.80
2016,08,13,01,09,19.80
2016,08,13,01,10,19.80
2016,08,13,01,11,19.80
2016,08,13,01,12,19.80
2016,08,13,01,13,19.80
2016,08,13,01,14,19.70
2016,08,13,01,15,19.70
2016,08,13,01,16,19.70
2016,08,13,01,17,19.70
2016,08,13,01,18,19.60
2016,08,13,01,19,19.60
2016,08,13,01,20,19.60
2016,08,13,01,21,19.60
2016,08,13,01,22,19.60
2016,08,13,01,23,19.50
2016,08,13,01,24,19.50
2016,08,13,01,25,19.40
2016,08,13,01,26,19.40
2016,08,13,01,27,19.30
2016,08,13,01,28,19.30
2016,08,13,01,29,19.30
2016,08,13,01,30,19.20
2016,08,13,01,31,19.20
2016,08,13,01,32,19.20
2016,08,13,01,33,19.20
2016,08,13,01,34,19.10
2016,08,13,01,35,19.10
2016,08,13,01,36,19.10
2016,08,13,01,37,19.10
2016,08,13,01,38,19.10
2016,08,13,01,39,19.10
2016,08,13,01,40,19.00
2016,08,13,01,41,19.00
2016,08,13,01,42,19.00
2016,08,13,01,43,18.90
2016,08,13,01,44,18.90
2016,08,13,01,45,18.90
2016,08,13,01,46,18.90
2016,08,13,01,47,18.90
2016,08,13,01,48,18.80
2016,08,13,01,49,18.80
2016,08,13,01,50,18.80
2016,08,13,01,51,18.80
2016,08,13,01,52,18.70
2016,08,13,01,53,18.70
2016,08,13,01,54,18.70
2016,08,13,01,55,18.70
2016,08,13,01,56,18.70
2016,08,13,01,57,18.70
2016,08,13,01,58,18.70
2016,08,13,01,59,18.60
2016,08,13,02,00,18.60
2016,08,13,02,01,18.60
2016,08,13,02,02,18.60
2016,08,13,02,03,18.50
2016,08,13,02,04,18.50
2016,08,13,02,05,18.50
2016,08,13,02,06,18.40
2016,08,13,02,07,18.40
2016,08,13,02,08,18.40
2016,08,13,02,09,18.40
2016,08,13,02,10,18.40
2016,08,13,02,11,18.40
2016,08,13,02,12,18.40
2016,08,13,02,13,18.40
2016,08,13,02,14,18.30
2016,08,13,02,15,18.30
2016,08,13,02,16,18.30
2016,08,13,02,17,18.30
2016,08,13,02,18,18.30
2016,08,13,02,19,18.30
2016,08,13,02,20,18.30
2016,08,13,02,21,18.30
2016,08,13,02,22,18.30
2016,08,13,02,23,18.30
2016,08,13,02,24,18.30
2016,08,13,02,25,18.30
2016,08,13,02,26,18.30
2016,08,13,02,27,18.20
2016,08,13,02,28,18.20
2016,08,13,02,29,18.20
2016,08,13,02,30,18.20
2016,08,13,02,31,18.20
2016,08,13,02,32,18.20
2016,08,13,02,33,18.20
2016,08,13,02,34,18.20
2016,08,13,02,35,18.20
2016,08,13,02,36,18.20
2016,08,13,02,37,18.20
2016,08,13,02,38,18.20
2016,08,13,02,39,18.20
2016,08,13,02,40,18.20
2016,08,13,02,41,18.20
2016,08,13,02,42,18.20
2016,08,13,02,43,18.20
2016,08,13,02,44,18.30
2016,08,13,02,45,18.30
2016,08,13,02,46,18.30
2016,08,13,02,47,18.30
2016,08,13,02,48,18.30
2016,08,13,02,49,18.20
2016,08,13,02,50,18.20
2016,08,13,02,51,18.30
2016,08,13,02,52,18.30
2016,08,13,02,53,18.30
2016,08,13,02,54,18.30
2016,08,13,02,55,18.30
2016,08,13,02,56,18.30
2016,08,13,02,57,18.30
2016,08,13,02,58,18.30
2016,08,13,02,59,18.30
2016,08,13,03,00,18.30
2016,08,13,03,01,18.30
2016,08,13,03,02,18.30
2016,08,13,03,03,18.30
2016,08,13,03,04,18.30
2016,08,13,03,05,18.30
2016,08,13,03,06,18.30
2016,08,13,03,07,18.30
2016,08,13,03,08,18.30
2016,08,13,03,09,18.30
2016,08,13,03,10,18.30
2016,08,13,03,11,18.30
2016,08,13,03,12,18.30
2016,08,13,03,13,18.20
2016,08,13,03,14,18.20
2016,08,13,03,15,18.20
2016,08,13,03,16,18.20
2016,08,13,03,17,18.20
2016,08,13,03,18,18.20
2016,08,13,03,19,18.10
2016,08,13,03,20,18.10
2016,08,13,03,21,18.10
2016,08,13,03,22,18.10
2016,08,13,03,23,18.10
2016,08,13,03,24,18.10
2016,08,13,03,25,18.10
2016,08,13,03,26,18.10
2016,08,13,03,27,18.10
2016,08,13,03,28,18.10
2016,08,13,03,29,18.10
2016,08,13,03,30,18.10
2016,08,13,03,31,18.20
2016,08,13,03,32,18.20
2016,08,13,03,33,18.20
2016,08,13,03,34,18.20
2016,08,13,03,35,18.20
2016,08,13,03,36,18.20
2016,08,13,03,37,18.20
2016,08,13,03,38,18.20
2016,08,13,03,39,18.20
2016,08,13,03,40,18.20
2016,08,13,03,41,18.20
2016,08,13,03,42,18.20
2016,08,13,03,43,18.20
2016,08,13,03,44,18.20
2016,08,13,03,45,18.20
2016,08,13,03,46,18.20
2016,08,13,03,47,18.20
2016,08,13,03,48,18.20
2016,08,13,03,49,18.20
2016,08,13,03,50,18.20
2016,08,13,03,51,18.20
2016,08,13,03,52,18.20
2016,08,13,03,53,18.20
2016,08,13,03,54,18.20
2016,08,13,03,55,18.20
2016,08,13,03,56,18.20
2016,08,13,03,57,18.20
2016,08,13,03,58,18.20
2016,08,13,03,59,18.20
2016,08,13,04,00,18.20
2016,08,13,04,01,18.20
2016,08,13,04,02,18.20
2016,08,13,04,03,18.20
2016,08,13,04,04,18.20
2016,08,13,04,05,18.20
2016,08,13,04,06,18.20
2016,08,13,04,07,18.20
2016,08,13,04,08,18.20
2016,08,13,04,09,18.20
2016,08,13,04,10,18.20
2016,08,13,04,11,18.20
2016,08,13,04,12,18.10
2016,08,13,04,13,18.10
2016,08,13,04,14,18.10
2016,08,13,04,15,18.10
2016,08,13,04,16,18.10
2016,08,13,04,17,18.10
2016,08,13,04,18,18.10
2016,08,13,04,19,18.00
2016,08,13,04,20,18.00
2016,08,13,04,21,18.00
2016,08,13,04,22,18.00
2016,08,13,04,23,18.00
2016,08,13,04,24,18.00
2016,08,13,04,25,18.00
2016,08,13,04,26,18.00
2016,08,13,04,27,17.90
2016,08,13,04,28,17.90
2016,08,13,04,29,17.90
2016,08,13,04,30,17.90
2016,08,13,04,31,17.90
2016,08,13,04,32,17.90
2016,08,13,04,33,17.80
2016,08,13,04,34,17.80
2016,08,13,04,35,17.80
2016,08,13,04,36,17.80
2016,08,13,04,37,17.80
2016,08,13,04,38,17.80
2016,08,13,04,39,17.80
2016,08,13,04,40,17.80
2016,08,13,04,41,17.80
2016,08,13,04,42,17.80
2016,08,13,04,43,17.80
2016,08,13,04,44,17.80
2016,08,13,04,45,17.80
2016,08,13,04,46,17.80
2016,08,13,04,47,17.80
2016,08,13,04,48,17.80
2016,08,13,04,49,17.80
2016,08,13,04,50,17.80
2016,08,13,04,51,17.80
2016,08,13,04,52,17.80
2016,08,13,04,53,17.70
2016,08,13,04,54,17.70
2016,08,13,04,55,17.70
2016,08,13,04,56,17.70
2016,08,13,04,57,17.60
2016,08,13,04,58,17.60
2016,08,13,04,59,17.60
2016,08,13,05,00,17.60
2016,08,13,05,01,17.50
2016,08,13,05,02,17.50
2016,08,13,05,03,17.50
2016,08,13,05,04,17.40
2016,08,13,05,05,17.40
2016,08,13,05,06,17.40
2016,08,13,05,07,17.40
2016,08,13,05,08,17.30
2016,08,13,05,09,17.30
2016,08,13,05,10,17.30
2016,08,13,05,11,17.20
2016,08,13,05,12,17.20
2016,08,13,05,13,17.20
2016,08,13,05,14,17.10
2016,08,13,05,15,17.10
2016,08,13,05,16,17.10
2016,08,13,05,17,17.00
2016,08,13,05,18,17.00
2016,08,13,05,19,17.00
2016,08,13,05,20,16.90
2016,08,13,05,21,16.90
2016,08,13,05,22,16.90
2016,08,13,05,23,16.90
2016,08,13,05,24,16.90
2016,08,13,05,25,16.90
2016,08,13,05,26,16.90
2016,08,13,05,27,17.00
2016,08,13,05,28,17.00
2016,08,13,05,29,17.00
2016,08,13,05,30,17.00
2016,08,13,05,31,17.00
2016,08,13,05,32,17.00
2016,08,13,05,33,17.00
2016,08,13,05,34,17.00
2016,08,13,05,35,17.00
2016,08,13,05,36,17.10
2016,08,13,05,37,17.10
2016,08,13,05,38,17.10
2016,08,13,05,39,17.10
2016,08,13,05,40,17.10
2016,08,13,05,41,17.10
2016,08,13,05,42,17.10
2016,08,13,05,43,17.00
2016,08,13,05,44,17.00
2016,08,13,05,45,17.00
2016,08,13,05,46,17.00
2016,08,13,05,47,17.00
2016,08,13,05,48,17.00
2016,08,13,05,49,16.90
2016,08,13,05,50,16.90
2016,08,13,05,51,16.90
2016,08,13,05,52,16.90
2016,08,13,05,53,16.90
2016,08,13,05,54,16.80
2016,08,13,05,55,16.80
2016,08,13,05,56,16.80
2016,08,13,05,57,16.80
2016,08,13,05,58,16.80
2016,08,13,05,59,16.80
2016,08,13,06,00,16.80
2016,08,13,06,01,16.80
2016,08,13,06,02,16.80
2016,08,13,06,03,16.80
2016,08,13,06,04,16.80
2016,08,13,06,05,16.80
2016,08,13,06,06,16.80
2016,08,13,06,07,16.80
2016,08,13,06,08,16.80
2016,08,13,06,09,16.80
2016,08,13,06,10,16.70
2016,08,13,06,11,16.70
2016,08,13,06,12,16.70
2016,08,13,06,13,16.70
2016,08,13,06,14,16.70
2016,08,13,06,15,16.70
2016,08,13,06,16,16.70
2016,08,13,06,17,16.70
2016,08,13,06,18,16.70
2016,08,13,06,19,16.70
2016,08,13,06,20,16.70
2016,08,13,06,21,16.70
2016,08,13,06,22,16.70
2016,08,13,06,23,16.60
2016,08,13,06,24,16.60
2016,08,13,06,25,16.60
2016,08,13,06,26,16.60
2016,08,13,06,27,16.60
2016,08,13,06,28,16.60
2016,08,13,06,29,16.60
2016,08,13,06,30,16.60
2016,08,13,06,31,16.60
2016,08,13,06,32,16.60
2016,08,13,06,33,16.60
2016,08,13,06,34,16.50
2016,08,13,06,35,16.50
2016,08,13,06,36,16.50
2016,08,13,06,37,16.50
2016,08,13,06,38,16.40
2016,08,13,06,39,16.40
2016,08,13,06,40,16.40
2016,08,13,06,41,16.40
2016,08,13,06,42,16.40
2016,08,13,06,43,16.40
2016,08,13,06,44,16.40
2016,08,13,06,45,16.40
2016,08,13,06,46,16.30
2016,08,13,06,47,16.30
2016,08,13,06,48,16.30
2016,08,13,06,49,16.30
2016,08,13,06,50,16.30
2016,08,13,06,51,16.20
2016,08,13,06,52,16.20
2016,08,13,06,53,16.20
2016,08,13,06,54,16.20
2016,08,13,06,55,16.10
2016,08,13,06,56,16.10
2016,08,13,06,57,16.10
2016,08,13,06,58,16.20
2016,08,13,06,59,16.20
2016,08,13,07,00,16.20
2016,08,13,07,01,16.20
2016,08,13,07,02,16.20
2016,08,13,07,03,16.30
2016,08,13,07,04,16.30
2016,08,13,07,05,16.30
2016,08,13,07,06,16.30
2016,08,13,07,07,16.30
2016,08,13,07,08,16.30
2016,08,13,07,09,16.40
2016,08,13,07,10,16.40
2016,08,13,07,11,16.40
2016,08,13,07,12,16.40
2016,08,13,07,13,16.40
2016,08,13,07,14,16.40
2016,08,13,07,15,16.40
2016,08,13,07,16,16.40
2016,08,13,07,17,16.40
2016,08,13,07,18,16.50
2016,08,13,07,19,16.50
2016,08,13,07,20,16.60
2016,08,13,07,21,16.60
2016,08,13,07,22,16.60
2016,08,13,07,23,16.70
2016,08,13,07,24,16.70
2016,08,13,07,25,16.70
2016,08,13,07,26,16.80
2016,08,13,07,27,16.80
2016,08,13,07,28,16.90
2016,08,13,07,29,16.90
2016,08,13,07,30,16.90
2016,08,13,07,31,17.00
2016,08,13,07,32,17.00
2016,08,13,07,33,17.10
2016,08,13,07,34,17.10
2016,08,13,07,35,17.10
2016,08,13,07,36,17.20
2016,08,13,07,37,17.20
2016,08,13,07,38,17.30
2016,08,13,07,39,17.30
2016,08,13,07,40,17.40
2016,08,13,07,41,17.40
2016,08,13,07,42,17.50
2016,08,13,07,43,17.60
2016,08,13,07,44,17.60
2016,08,13,07,45,17.60
2016,08,13,07,46,17.70
2016,08,13,07,47,17.70
2016,08,13,07,48,17.80
2016,08,13,07,49,17.80
2016,08,13,07,50,17.90
2016,08,13,07,51,17.90
2016,08,13,07,52,18.00
2016,08,13,07,53,18.00
2016,08,13,07,54,18.10
2016,08,13,07,55,18.10
2016,08,13,07,56,18.10
2016,08,13,07,57,18.20
2016,08,13,07,58,18.20
2016,08,13,07,59,18.20
2016,08,13,08,00,18.30
2016,08,13,08,01,18.30
2016,08,13,08,02,18.30
2016,08,13,08,03,18.40
2016,08,13,08,04,18.40
2016,08,13,08,05,18.50
2016,08,13,08,06,18.60
2016,08,13,08,07,18.60
2016,08,13,08,08,18.60
2016,08,13,08,09,18.70
2016,08,13,08,10,18.80
2016,08,13,08,11,18.80
2016,08,13,08,12,18.90
2016,08,13,08,13,18.90
2016,08,13,08,14,19.00
2016,08,13,08,15,19.00
2016,08,13,08,16,19.10
2016,08,13,08,17,19.20
2016,08,13,08,18,19.20
2016,08,13,08,19,19.30
2016,08,13,08,20,19.30
2016,08,13,08,21,19.40
2016,08,13,08,22,19.40
2016,08,13,08,23,19.50
2016,08,13,08,24,19.50
2016,08,13,08,25,19.60
2016,08,13,08,26,19.70
2016,08,13,08,27,19.70
2016,08,13,08,28,19.80
2016,08,13,08,29,19.80
2016,08,13,08,30,19.90
2016,08,13,08,31,20.00
2016,08,13,08,32,20.10
2016,08,13,08,33,20.10
2016,08,13,08,34,20.20
2016,08,13,08,35,20.30
2016,08,13,08,36,20.40
2016,08,13,08,37,20.50
2016,08,13,08,38,20.60
2016,08,13,08,39,20.70
2016,08,13,08,40,20.80
2016,08,13,08,41,21.00
2016,08,13,08,42,21.10
2016,08,13,08,43,21.20
2016,08,13,08,44,21.30
2016,08,13,08,45,21.40
2016,08,13,08,46,21.60
2016,08,13,08,47,21.70
2016,08,13,08,48,21.80
2016,08,13,08,49,21.90
2016,08,13,08,50,22.00
2016,08,13,08,51,22.10
2016,08,13,08,52,22.20
2016,08,13,08,53,22.30
2016,08,13,08,54,22.30
2016,08,13,08,55,22.40
2016,08,13,08,56,22.40
2016,08,13,08,57,22.40
2016,08,13,08,58,22.50
2016,08,13,08,59,22.50
2016,08,13,09,00,22.60
2016,08,13,09,01,22.60
2016,08,13,09,02,22.70
2016,08,13,09,03,22.70
2016,08,13,09,04,22.80
2016,08,13,09,05,22.80
2016,08,13,09,06,22.90
2016,08,13,09,07,23.00
2016,08,13,09,08,23.10
2016,08,13,09,09,23.20
2016,08,13,09,10,23.30
2016,08,13,09,11,23.40
2016,08,13,09,12,23.50
2016,08,13,09,13,23.50
2016,08,13,09,14,23.60
2016,08,13,09,15,23.70
2016,08,13,09,16,23.70
2016,08,13,09,17,23.80
2016,08,13,09,18,23.80
2016,08,13,09,19,23.80
2016,08,13,09,20,23.90
2016,08,13,09,21,23.90
2016,08,13,09,22,23.90
2016,08,13,09,23,23.90
2016,08,13,09,24,24.00
2016,08,13,09,25,24.00
2016,08,13,09,26,24.10
2016,08,13,09,27,24.10
2016,08,13,09,28,24.10
2016,08,13,09,29,24.20
2016,08,13,09,30,24.20
2016,08,13,09,31,24.20
2016,08,13,09,32,24.20
2016,08,13,09,33,24.20
2016,08,13,09,34,24.20
2016,08,13,09,35,24.20
2016,08,13,09,36,24.20
2016,08,13,09,37,24.20
2016,08,13,09,38,24.20
2016,08,13,09,39,24.10
2016,08,13,09,40,24.10
2016,08,13,09,41,24.10
2016,08,13,09,42,24.10
2016,08,13,09,43,24.10
2016,08,13,09,44,24.10
2016,08,13,09,45,24.10
2016,08,13,09,46,24.00
2016,08,13,09,47,24.00
2016,08,13,09,48,23.90
2016,08,13,09,49,23.90
2016,08,13,09,50,23.90
2016,08,13,09,51,23.80
2016,08,13,09,52,23.80
2016,08,13,09,53,23.80
2016,08,13,09,54,23.70
2016,08,13,09,55,23.70
2016,08,13,09,56,23.60
2016,08,13,09,57,23.60
2016,08,13,09,58,23.60
2016,08,13,09,59,23.50
2016,08,13,10,00,23.50
2016,08,13,10,01,23.40
2016,08,13,10,02,23.40
2016,08,13,10,03,23.40
2016,08,13,10,04,23.30
2016,08,13,10,05,23.30
2016,08,13,10,06,23.30
2016,08,13,10,07,23.30
2016,08,13,10,08,23.30
2016,08,13,10,09,23.30
2016,08,13,10,10,23.30
2016,08,13,10,11,23.30
2016,08,13,10,12,23.30
2016,08,13,10,13,23.30
2016,08,13,10,14,23.30
2016,08,13,10,15,23.30
2016,08,13,10,16,23.30
2016,08,13,10,17,23.20
2016,08,13,10,18,23.20
2016,08,13,10,19,23.20
2016,08,13,10,20,23.20
2016,08,13,10,21,23.20
2016,08,13,10,22,23.20
2016,08,13,10,23,23.20
2016,08,13,10,24,23.30
2016,08,13,10,25,23.30
2016,08,13,10,26,23.30
2016,08,13,10,27,23.30
2016,08,13,10,28,23.30
2016,08,13,10,29,23.30
2016,08,13,10,30,23.30
2016,08,13,10,31,23.30
2016,08,13,10,32,23.30
2016,08,13,10,33,23.40
2016,08,13,10,34,23.40
2016,08,13,10,35,23.40
2016,08,13,10,36,23.40
2016,08,13,10,37,23.50
2016,08,13,10,38,23.50
2016,08,13,10,39,23.50
2016,08,13,10,40,23.50
2016,08,13,10,41,23.60
2016,08,13,10,42,23.60
2016,08,13,10,43,23.60
2016,08,13,10,44,23.60
2016,08,13,10,45,23.70
2016,08,13,10,46,23.70
2016,08,13,10,47,23.70
2016,08,13,10,48,23.80
2016,08,13,10,49,23.80
2016,08,13,10,50,23.90
2016,08,13,10,51,23.90
2016,08,13,10,52,24.00
2016,08,13,10,53,24.10
2016,08,13,10,54,24.20
2016,08,13,10,55,24.20
2016,08,13,10,56,24.20
2016,08,13,10,57,24.30
2016,08,13,10,58,24.30
2016,08,13,10,59,24.40
2016,08,13,11,00,24.50
2016,08,13,11,01,24.50
2016,08,13,11,02,24.60
2016,08,13,11,03,24.60
2016,08,13,11,04,24.70
2016,08,13,11,05,24.70
2016,08,13,11,06,24.80
2016,08,13,11,07,24.90
2016,08,13,11,08,24.90
2016,08,13,11,09,25.00
2016,08,13,11,10,25.10
2016,08,13,11,11,25.10
2016,08,13,11,12,25.10
2016,08,13,11,13,25.10
2016,08,13,11,14,25.10
2016,08,13,11,15,25.20
2016,08,13,11,16,25.20
2016,08,13,11,17,25.20
2016,08,13,11,18,25.20
2016,08,13,11,19,25.20
2016,08,13,11,20,25.20
2016,08,13,11,21,25.20
2016,08,13,11,22,25.20
2016,08,13,11,23,25.20
2016,08,13,11,24,25.20
2016,08,13,11,25,25.20
2016,08,13,11,26,25.20
2016,08,13,11,27,25.20
2016,08,13,11,28,25.20
2016,08,13,11,29,25.20
2016,08,13,11,30,25.20
2016,08,13,11,31,25.20
2016,08,13,11,32,25.20
2016,08,13,11,33,25.10
2016,08,13,11,34,25.10
2016,08,13,11,35,25.10
2016,08,13,11,36,25.10
2016,08,13,11,37,25.20
2016,08,13,11,38,25.30
2016,08,13,11,39,25.30
2016,08,13,11,40,25.40
2016,08,13,11,41,25.40
2016,08,13,11,42,25.40
2016,08,13,11,43,25.40
2016,08,13,11,44,25.40
2016,08,13,11,45,25.30
2016,08,13,11,46,25.30
2016,08,13,11,47,25.40
2016,08,13,11,48,25.40
2016,08,13,11,49,25.50
2016,08,13,11,50,25.60
2016,08,13,11,51,25.60
2016,08,13,11,52,25.70
2016,08,13,11,53,25.70
2016,08,13,11,54,25.80
2016,08,13,11,55,25.80
2016,08,13,11,56,25.80
2016,08,13,11,57,25.80
2016,08,13,11,58,25.90
2016,08,13,11,59,25.90
2016,08,13,12,00,26.00
2016,08,13,12,01,26.00
2016,08,13,12,02,26.10
2016,08,13,12,03,26.10
2016,08,13,12,04,26.10
2016,08,13,12,05,26.00
2016,08,13,12,06,26.00
2016,08,13,12,07,25.90
2016,08,13,12,08,25.90
2016,08,13,12,09,25.90
2016,08,13,12,10,25.90
2016,08,13,12,11,25.90
2016,08,13,12,12,25.90
2016,08,13,12,13,26.00
2016,08,13,12,14,26.00
2016,08,13,12,15,26.00
2016,08,13,12,16,26.10
2016,08,13,12,17,26.10
2016,08,13,12,18,26.10
2016,08,13,12,19,26.20
2016,08,13,12,20,26.20
2016,08,13,12,21,26.20
2016,08,13,12,22,26.20
2016,08,13,12,23,26.20
2016,08,13,12,24,26.20
2016,08,13,12,25,26.20
2016,08,13,12,26,26.20
2016,08,13,12,27,26.30
2016,08,13,12,28,26.30
2016,08,13,12,29,26.30
2016,08,13,12,30,26.30
2016,08,13,12,31,26.20
2016,08,13,12,32,26.20
2016,08,13,12,33,26.20
2016,08,13,12,34,26.20
2016,08,13,12,35,26.20
2016,08,13,12,36,26.20
2016,08,13,12,37,26.30
2016,08,13,12,38,26.30
2016,08,13,12,39,26.30
2016,08,13,12,40,26.30
2016,08,13,12,41,26.30
2016,08,13,12,42,26.30
2016,08,13,12,43,26.30
2016,08,13,12,44,26.30
2016,08,13,12,45,26.40
2016,08,13,12,46,26.40
2016,08,13,12,47,26.40
2016,08,13,12,48,26.50
2016,08,13,12,49,26.50
2016,08,13,12,50,26.40
2016,08,13,12,51,26.30
2016,08,13,12,52,26.30
2016,08,13,12,53,26.30
2016,08,13,12,54,26.20
2016,08,13,12,55,26.20
2016,08,13,12,56,26.20
2016,08,13,12,57,26.20
2016,08,13,12,58,26.20
2016,08,13,12,59,26.20
2016,08,13,13,00,26.20
2016,08,13,13,01,26.20
2016,08,13,13,02,26.20
2016,08,13,13,03,26.20
2016,08,13,13,04,26.30
2016,08,13,13,05,26.30
2016,08,13,13,06,26.40
2016,08,13,13,07,26.40
2016,08,13,13,08,26.40
2016,08,13,13,09,26.50
2016,08,13,13,10,26.50
2016,08,13,13,11,26.50
2016,08,13,13,12,26.40
2016,08,13,13,13,26.40
2016,08,13,13,14,26.40
2016,08,13,13,15,26.40
2016,08,13,13,16,26.40
2016,08,13,13,17,26.40
2016,08,13,13,18,26.40
2016,08,13,13,19,26.40
2016,08,13,13,20,26.40
2016,08,13,13,21,26.40
2016,08,13,13,22,26.40
2016,08,13,13,23,26.50
2016,08,13,13,24,26.50
2016,08,13,13,25,26.60
2016,08,13,13,26,26.60
2016,08,13,13,27,26.60
2016,08,13,13,28,26.50
2016,08,13,13,29,26.40
2016,08,13,13,30,26.40
2016,08,13,13,31,26.30
2016,08,13,13,32,26.30
2016,08,13,13,33,26.30
2016,08,13,13,34,26.30
2016,08,13,13,35,26.30
2016,08,13,13,36,26.30
2016,08,13,13,37,26.30
2016,08,13,13,38,26.30
2016,08,13,13,39,26.30
2016,08,13,13,40,26.20
2016,08,13,13,41,26.20
2016,08,13,13,42,26.20
2016,08,13,13,43,26.30
2016,08,13,13,44,26.30
2016,08,13,13,45,26.40
2016,08,13,13,46,26.40
2016,08,13,13,47,26.40
2016,08,13,13,48,26.40
2016,08,13,13,49,26.30
2016,08,13,13,50,26.30
2016,08,13,13,51,26.30
2016,08,13,13,52,26.30
2016,08,13,13,53,26.20
2016,08,13,13,54,26.10
2016,08,13,13,55,26.10
2016,08,13,13,56,26.10
2016,08,13,13,57,26.20
2016,08,13,13,58,26.20
2016,08,13,13,59,26.20
2016,08,13,14,00,26.30
2016,08,13,14,01,26.30
2016,08,13,14,02,26.30
2016,08,13,14,03,26.30
2016,08,13,14,04,26.30
2016,08,13,14,05,26.20
2016,08,13,14,06,26.20
2016,08,13,14,07,26.20
2016,08,13,14,08,26.20
2016,08,13,14,09,26.20
2016,08,13,14,10,26.20
2016,08,13,14,11,26.20
2016,08,13,14,12,26.20
2016,08,13,14,13,26.20
2016,08,13,14,14,26.20
2016,08,13,14,15,26.20
2016,08,13,14,16,26.30
2016,08,13,14,17,26.30
2016,08,13,14,18,26.30
2016,08,13,14,19,26.30
2016,08,13,14,20,26.40
2016,08,13,14,21,26.40
2016,08,13,14,22,26.40
2016,08,13,14,23,26.40
2016,08,13,14,24,26.40
2016,08,13,14,25,26.40
2016,08,13,14,26,26.50
2016,08,13,14,27,26.50
2016,08,13,14,28,26.50
2016,08,13,14,29,26.50
2016,08,13,14,30,26.50
2016,08,13,14,31,26.40
2016,08,13,14,32,26.40
2016,08,13,14,33,26.30
2016,08,13,14,34,26.30
2016,08,13,14,35,26.30
2016,08,13,14,36,26.30
2016,08,13,14,37,26.30
2016,08,13,14,38,26.30
2016,08,13,14,39,26.30
2016,08,13,14,40,26.30
2016,08,13,14,41,26.30
2016,08,13,14,42,26.30
2016,08,13,14,43,26.30
2016,08,13,14,44,26.40
2016,08,13,14,45,26.40
2016,08,13,14,46,26.40
2016,08,13,14,47,26.40
2016,08,13,14,48,26.40
2016,08,13,14,49,26.40
2016,08,13,14,50,26.40
2016,08,13,14,51,26.40
2016,08,13,14,52,26.50
2016,08,13,14,53,26.50
2016,08,13,14,54,26.50
2016,08,13,14,55,26.50
2016,08,13,14,56,26.50
2016,08,13,14,57,26.50
2016,08,13,14,58,26.50
2016,08,13,14,59,26.60
2016,08,13,15,00,26.60
2016,08,13,15,01,26.60
2016,08,13,15,02,26.60
2016,08,13,15,03,26.70
2016,08,13,15,04,26.70
2016,08,13,15,05,26.70
2016,08,13,15,06,26.60
2016,08,13,15,07,26.50
2016,08,13,15,08,26.40
2016,08,13,15,09,26.40
2016,08,13,15,10,26.40
2016,08,13,15,11,26.40
2016,08,13,15,12,26.50
2016,08,13,15,13,26.50
2016,08,13,15,14,26.60
2016,08,13,15,15,26.60
2016,08,13,15,16,26.60
2016,08,13,15,17,26.60
2016,08,13,15,18,26.70
2016,08,13,15,19,26.70
2016,08,13,15,20,26.70
2016,08,13,15,21,26.70
2016,08,13,15,22,26.70
2016,08,13,15,23,26.70
2016,08,13,15,24,26.70
2016,08,13,15,25,26.70
2016,08,13,15,26,26.60
2016,08,13,15,27,26.60
2016,08,13,15,28,26.60
2016,08,13,15,29,26.60
2016,08,13,15,30,26.60
2016,08,13,15,31,26.60
2016,08,13,15,32,26.60
2016,08,13,15,33,26.60
2016,08,13,15,34,26.50
2016,08,13,15,35,26.50
2016,08,13,15,36,26.50
2016,08,13,15,37,26.50
2016,08,13,15,38,26.50
2016,08,13,15,39,26.60
2016,08,13,15,40,26.70
2016,08,13,15,41,26.70
2016,08,13,15,42,26.70
2016,08,13,15,43,26.70
2016,08,13,15,44,26.70
2016,08,13,15,45,26.70
2016,08,13,15,46,26.70
2016,08,13,15,47,26.70
2016,08,13,15,48,26.70
2016,08,13,15,49,26.60
2016,08,13,15,50,26.60
2016,08,13,15,51,26.60
2016,08,13,15,52,26.60
2016,08,13,15,53,26.60
2016,08,13,15,54,26.60
2016,08,13,15,55,26.60
2016,08,13,15,56,26.60
2016,08,13,15,57,26.60
2016,08,13,15,58,26.60
2016,08,13,15,59,26.60
2016,08,13,16,00,26.60
2016,08,13,16,01,26.70
2016,08,13,16,02,26.70
2016,08,13,16,03,26.80
2016,08,13,16,04,26.80
2016,08,13,16,05,26.90
2016,08,13,16,06,26.90
2016,08,13,16,07,27.00
2016,08,13,16,08,27.00
2016,08,13,16,09,27.10
2016,08,13,16,10,27.10
2016,08,13,16,11,27.10
2016,08,13,16,12,27.20
2016,08,13,16,13,27.20
2016,08,13,16,14,27.30
2016,08,13,16,15,27.30
2016,08,13,16,16,27.40
2016,08,13,16,17,27.40
2016,08,13,16,18,27.40
2016,08,13,16,19,27.40
2016,08,13,16,20,27.40
2016,08,13,16,21,27.30
2016,08,13,16,22,27.30
2016,08,13,16,23,27.30
2016,08,13,16,24,27.30
2016,08,13,16,25,27.30
2016,08,13,16,26,27.40
2016,08,13,16,27,27.40
2016,08,13,16,28,27.40
2016,08,13,16,29,27.40
2016,08,13,16,30,27.30
2016,08,13,16,31,27.30
2016,08,13,16,32,27.30
2016,08,13,16,33,27.30
2016,08,13,16,34,27.20
2016,08,13,16,35,27.20
2016,08,13,16,36,27.20
2016,08,13,16,37,27.20
2016,08,13,16,38,27.10
2016,08,13,16,39,27.10
2016,08,13,16,40,27.10
2016,08,13,16,41,27.20
2016,08,13,16,42,27.20
2016,08,13,16,43,27.20
2016,08,13,16,44,27.20
2016,08,13,16,45,27.20
2016,08,13,16,46,27.30
2016,08,13,16,47,27.20
2016,08,13,16,48,27.20
2016,08,13,16,49,27.20
2016,08,13,16,50,27.20
2016,08,13,16,51,27.20
2016,08,13,16,52,27.20
2016,08,13,16,53,27.10
2016,08,13,16,54,27.10
2016,08,13,16,55,27.00
2016,08,13,16,56,27.00
2016,08,13,16,57,26.90
2016,08,13,16,58,26.90
2016,08,13,16,59,26.90
2016,08,13,17,00,26.90
2016,08,13,17,01,26.90
2016,08,13,17,02,26.90
2016,08,13,17,03,26.90
2016,08,13,17,04,26.90
2016,08,13,17,05,26.90
2016,08,13,17,06,26.90
2016,08,13,17,07,27.00
2016,08,13,17,08,27.00
2016,08,13,17,09,27.00
2016,08,13,17,10,27.10
2016,08,13,17,11,27.10
2016,08,13,17,12,27.10
2016,08,13,17,13,27.10
2016,08,13,17,14,27.10
2016,08,13,17,15,27.00
2016,08,13,17,16,27.00
2016,08,13,17,17,27.00
2016,08,13,17,18,27.00
2016,08,13,17,19,26.90